Voltar ao catálogo

FENGYUN 1C DEB

AtivoSSO
NORAD 31179·DEBRIS·🇨🇳 China

Lançado May 10, 1999 de Taiyuan Satellite Launch Center

Loading…

Próximas Passagens (próximas 24 horas)

TLE

AtualizadoSource: Space-Track

Época: Sep 14, 2026, 18:53 UTC

1 31179U 99025BJH 26257.78727792  .00000827  00000-0  56002-3 0  9990
2 31179  99.0044 275.3414 0213407 327.4974  31.3193 13.92635326657826

Acompanhe FENGYUN 1C DEB em tempo real com AllMySat

Download on the App Store